Orbital Elements at Epoch 2459200.5 (2020-Dec-17.0) TDB
Reference: JPL 14 (heliocentric ecliptic J2000)
Element | Value | Uncertainty (1-sigma) | Units |
e | .1582172702518975 | 6.7926e-08 | |
a | 2.69074149566912 | 1.8382e-08 | au |
q | 2.265019721270844 | 1.8643e-07 | au |
i | 5.339089464895642 | 4.7364e-06 | deg |
node | 91.89442190567591 | 6.7802e-05 | deg |
peri | 73.06130986795165 | 6.9842e-05 | deg |
M | 19.54930505336216 | 1.5226e-05 | deg |
tp | 2459112.954220475283 (2020-Sep-20.45422048) | 6.7904e-05 | TDB |
period | 1612.153503302048 4.41 | 1.6521e-05 4.523e-08 | d yr |
n | .2233037978471903 | 2.2883e-09 | deg/d |
Q | 3.116463270067396 | 2.1291e-08 | au |
|
| | Orbit Determination Parameters
Additional Information
|